Time,TemperatureF,DewpointF,PressureIn,WindDirection,WindDirectionDegrees,WindSpeedMPH,WindSpeedGustMPH,Humidity,HourlyPrecipIn,Conditions,Clouds,dailyrainin,SoftwareType,DateUTC
2013-06-30 00:04:00,70.5,69.0,29.68,SSW,195,10.0,-999.0,95,-99.99,,,0.00,weatherlink.com 1.10,2013-06-30 04:04:00,
2013-06-30 00:19:00,70.1,69.0,29.68,SSW,197,5.0,-999.0,95,-99.99,,,0.00,weatherlink.com 1.10,2013-06-30 04:19:00,
2013-06-30 00:35:00,69.9,69.0,29.68,SSW,196,4.0,-999.0,95,-99.99,,,0.00,weatherlink.com 1.10,2013-06-30 04:35:00,
2013-06-30 00:50:00,69.9,69.0,29.70,SSW,196,10.0,-999.0,96,-99.99,,,0.00,weatherlink.com 1.10,2013-06-30 04:50:00,
2013-06-30 01:05:00,70.1,69.0,29.69,South,188,13.0,-999.0,96,-99.99,,,0.00,weatherlink.com 1.10,2013-06-30 05:05:00,
2013-06-30 01:20:00,70.2,69.0,29.70,SSW,202,7.0,-999.0,96,-99.99,,,0.00,weatherlink.com 1.10,2013-06-30 05:20:00,
2013-06-30 01:35:00,69.9,69.0,29.70,SSW,196,8.0,-999.0,96,-99.99,,,0.00,weatherlink.com 1.10,2013-06-30 05:35:00,
2013-06-30 02:05:00,69.5,68.0,29.70,South,179,9.0,-999.0,96,-99.99,,,0.00,weatherlink.com 1.10,2013-06-30 06:05:00,
2013-06-30 02:20:00,69.4,68.0,29.70,South,170,5.0,-999.0,96,-99.99,,,0.00,weatherlink.com 1.10,2013-06-30 06:20:00,
2013-06-30 02:35:00,69.7,69.0,29.70,South,185,14.0,-999.0,96,-99.99,,,0.00,weatherlink.com 1.10,2013-06-30 06:35:00,
2013-06-30 02:50:00,70.0,69.0,29.70,South,191,11.0,-999.0,96,-99.99,,,0.00,weatherlink.com 1.10,2013-06-30 06:50:00,
2013-06-30 03:05:00,70.1,69.0,29.70,South,185,6.0,-999.0,96,-99.99,,,0.00,weatherlink.com 1.10,2013-06-30 07:05:00,
2013-06-30 03:20:00,69.9,69.0,29.69,South,184,6.0,-999.0,96,-99.99,,,0.00,weatherlink.com 1.10,2013-06-30 07:20:00,
2013-06-30 03:36:00,70.2,69.0,29.70,South,189,7.0,-999.0,96,-99.99,,,0.00,weatherlink.com 1.10,2013-06-30 07:36:00,
2013-06-30 03:51:00,70.1,69.0,29.70,South,191,13.0,-999.0,96,-99.99,,,0.00,weatherlink.com 1.10,2013-06-30 07:51:00,
2013-06-30 04:06:00,70.1,69.0,29.70,South,188,8.0,-999.0,96,-99.99,,,0.00,weatherlink.com 1.10,2013-06-30 08:06:00,
2013-06-30 04:21:00,69.9,69.0,29.70,South,183,9.0,-999.0,96,-99.99,,,0.00,weatherlink.com 1.10,2013-06-30 08:21:00,
2013-06-30 04:36:00,69.9,69.0,29.71,SSW,198,10.0,-999.0,96,-99.99,,,0.00,weatherlink.com 1.10,2013-06-30 08:36:00,
2013-06-30 04:51:00,69.9,69.0,29.70,South,185,8.0,-999.0,96,-99.99,,,0.00,weatherlink.com 1.10,2013-06-30 08:51:00,
2013-06-30 05:06:00,69.9,69.0,29.71,SSW,212,7.0,-999.0,97,-99.99,,,0.00,weatherlink.com 1.10,2013-06-30 09:06:00,
2013-06-30 05:21:00,69.9,69.0,29.71,SSW,198,10.0,-999.0,97,-99.99,,,0.00,weatherlink.com 1.10,2013-06-30 09:21:00,
2013-06-30 05:36:00,70.3,69.0,29.71,SSW,200,6.0,-999.0,97,-99.99,,,0.00,weatherlink.com 1.10,2013-06-30 09:36:00,
2013-06-30 05:51:00,70.3,69.0,29.72,SSW,199,9.0,-999.0,97,-99.99,,,0.00,weatherlink.com 1.10,2013-06-30 09:51:00,
2013-06-30 06:06:00,70.0,69.0,29.73,South,184,7.0,-999.0,97,-99.99,,,0.00,weatherlink.com 1.10,2013-06-30 10:06:00,
2013-06-30 06:21:00,70.0,69.0,29.73,South,191,12.0,-999.0,97,-99.99,,,0.00,weatherlink.com 1.10,2013-06-30 10:21:00,
2013-06-30 06:37:00,69.7,69.0,29.74,SSW,193,10.0,-999.0,97,-99.99,,,0.00,weatherlink.com 1.10,2013-06-30 10:37:00,
2013-06-30 06:52:00,70.2,69.0,29.75,SSW,195,8.0,-999.0,97,-99.99,,,0.00,weatherlink.com 1.10,2013-06-30 10:52:00,
2013-06-30 07:07:00,70.0,69.0,29.75,South,191,12.0,-999.0,97,-99.99,,,0.00,weatherlink.com 1.10,2013-06-30 11:07:00,
2013-06-30 07:22:00,70.5,70.0,29.75,SW,231,11.0,-999.0,97,-99.99,,,0.00,weatherlink.com 1.10,2013-06-30 11:22:00,
2013-06-30 07:37:00,70.5,70.0,29.75,SSW,200,10.0,-999.0,97,-99.99,,,0.00,weatherlink.com 1.10,2013-06-30 11:37:00,
2013-06-30 07:52:00,70.6,70.0,29.76,SSW,196,6.0,-999.0,97,-99.99,,,0.00,weatherlink.com 1.10,2013-06-30 11:52:00,
2013-06-30 08:07:00,70.3,69.0,29.75,South,181,7.0,-999.0,97,-99.99,,,0.00,weatherlink.com 1.10,2013-06-30 12:07:00,
2013-06-30 08:22:00,70.9,70.0,29.76,SSW,200,9.0,-999.0,97,-99.99,,,0.00,weatherlink.com 1.10,2013-06-30 12:22:00,
2013-06-30 08:37:00,71.5,71.0,29.76,SSW,200,9.0,-999.0,97,-99.99,,,0.00,weatherlink.com 1.10,2013-06-30 12:37:00,
2013-06-30 08:52:00,71.3,70.0,29.77,South,191,14.0,-999.0,96,-99.99,,,0.00,weatherlink.com 1.10,2013-06-30 12:52:00,
2013-06-30 09:07:00,71.3,70.0,29.77,South,184,5.0,-999.0,96,-99.99,,,0.00,weatherlink.com 1.10,2013-06-30 13:07:00,
2013-06-30 09:22:00,71.2,70.0,29.77,SSW,203,13.0,-999.0,96,-99.99,,,0.00,weatherlink.com 1.10,2013-06-30 13:22:00,
2013-06-30 09:37:00,71.4,70.0,29.77,SSW,198,9.0,-999.0,96,-99.99,,,0.00,weatherlink.com 1.10,2013-06-30 13:37:00,
2013-06-30 09:53:00,71.9,71.0,29.77,SW,218,8.0,-999.0,96,-99.99,,,0.00,weatherlink.com 1.10,2013-06-30 13:53:00,
2013-06-30 10:08:00,72.4,71.0,29.77,South,187,9.0,-999.0,95,-99.99,,,0.00,weatherlink.com 1.10,2013-06-30 14:08:00,
2013-06-30 10:23:00,71.8,70.0,29.77,South,187,3.0,-999.0,94,-99.99,,,0.00,weatherlink.com 1.10,2013-06-30 14:23:00,
2013-06-30 10:38:00,71.8,70.0,29.77,South,184,9.0,-999.0,94,-99.99,,,0.00,weatherlink.com 1.10,2013-06-30 14:38:00,
2013-06-30 10:53:00,71.5,70.0,29.78,SSW,194,11.0,-999.0,94,-99.99,,,0.00,weatherlink.com 1.10,2013-06-30 14:53:00,
2013-06-30 11:08:00,71.5,70.0,29.78,SSW,196,14.0,-999.0,95,-99.99,,,0.00,weatherlink.com 1.10,2013-06-30 15:08:00,
2013-06-30 11:23:00,71.3,70.0,29.78,South,188,13.0,-999.0,95,-99.99,,,0.00,weatherlink.com 1.10,2013-06-30 15:23:00,
2013-06-30 11:38:00,71.7,71.0,29.78,SSW,205,12.0,-999.0,96,-99.99,,,0.00,weatherlink.com 1.10,2013-06-30 15:38:00,
2013-06-30 11:53:00,71.9,71.0,29.77,SSE,164,4.0,-999.0,96,-99.99,,,0.00,weatherlink.com 1.10,2013-06-30 15:53:00,
2013-06-30 12:08:00,71.1,70.0,29.77,South,184,10.0,-999.0,96,-99.99,,,0.00,weatherlink.com 1.10,2013-06-30 16:08:00,
2013-06-30 12:23:00,71.8,71.0,29.77,South,171,7.0,-999.0,96,-99.99,,,0.00,weatherlink.com 1.10,2013-06-30 16:23:00,
2013-06-30 12:38:00,72.0,71.0,29.77,South,185,4.0,-999.0,95,-99.99,,,0.00,weatherlink.com 1.10,2013-06-30 16:38:00,
2013-06-30 12:54:00,72.7,71.0,29.78,South,185,13.0,-999.0,94,-99.99,,,0.00,weatherlink.com 1.10,2013-06-30 16:54:00,
2013-06-30 13:09:00,72.8,71.0,29.77,South,180,12.0,-999.0,94,-99.99,,,0.00,weatherlink.com 1.10,2013-06-30 17:09:00,
2013-06-30 13:24:00,73.0,71.0,29.78,SSW,192,10.0,-999.0,93,-99.99,,,0.00,weatherlink.com 1.10,2013-06-30 17:24:00,
2013-06-30 13:39:00,73.2,71.0,29.78,South,190,21.0,-999.0,93,-99.99,,,0.00,weatherlink.com 1.10,2013-06-30 17:39:00,
2013-06-30 13:54:00,73.5,71.0,29.78,South,186,10.0,-999.0,92,-99.99,,,0.00,weatherlink.com 1.10,2013-06-30 17:54:00,
2013-06-30 14:09:00,73.7,71.0,29.78,SSE,166,13.0,-999.0,91,-99.99,,,0.00,weatherlink.com 1.10,2013-06-30 18:09:00,
2013-06-30 14:24:00,73.6,71.0,29.78,South,181,8.0,-999.0,91,-99.99,,,0.00,weatherlink.com 1.10,2013-06-30 18:24:00,
2013-06-30 14:39:00,74.2,71.0,29.78,SSE,162,7.0,-999.0,89,-99.99,,,0.00,weatherlink.com 1.10,2013-06-30 18:39:00,
2013-06-30 14:54:00,74.3,71.0,29.78,South,184,4.0,-999.0,90,-99.99,,,0.00,weatherlink.com 1.10,2013-06-30 18:54:00,
2013-06-30 15:09:00,73.7,71.0,29.78,SSE,168,6.0,-999.0,91,-99.99,,,0.00,weatherlink.com 1.10,2013-06-30 19:09:00,
2013-06-30 15:24:00,73.8,71.0,29.79,SSE,148,5.0,-999.0,91,-99.99,,,0.00,weatherlink.com 1.10,2013-06-30 19:24:00,
2013-06-30 15:40:00,73.9,71.0,29.79,SSE,155,3.0,-999.0,91,-99.99,,,0.00,weatherlink.com 1.10,2013-06-30 19:40:00,
2013-06-30 15:55:00,73.0,70.0,29.79,SSE,167,10.0,-999.0,91,-99.99,,,0.00,weatherlink.com 1.10,2013-06-30 19:55:00,
2013-06-30 16:10:00,73.5,71.0,29.78,South,172,4.0,-999.0,91,-99.99,,,0.00,weatherlink.com 1.10,2013-06-30 20:10:00,
2013-06-30 16:25:00,73.2,71.0,29.78,SSE,150,4.0,-999.0,91,-99.99,,,0.00,weatherlink.com 1.10,2013-06-30 20:25:00,
2013-06-30 16:40:00,73.5,71.0,29.78,SE,139,9.0,-999.0,92,-99.99,,,0.00,weatherlink.com 1.10,2013-06-30 20:40:00,
2013-06-30 16:55:00,73.3,71.0,29.78,ESE,110,5.0,-999.0,92,-99.99,,,0.00,weatherlink.com 1.10,2013-06-30 20:55:00,
2013-06-30 17:10:00,73.7,71.0,29.78,SE,134,6.0,-999.0,91,-99.99,,,0.00,weatherlink.com 1.10,2013-06-30 21:10:00,
2013-06-30 17:25:00,73.5,71.0,29.78,SSE,157,6.0,-999.0,92,-99.99,,,0.00,weatherlink.com 1.10,2013-06-30 21:25:00,
2013-06-30 17:40:00,73.2,71.0,29.79,South,169,3.0,-999.0,93,-99.99,,,0.00,weatherlink.com 1.10,2013-06-30 21:40:00,
2013-06-30 17:55:00,73.1,71.0,29.79,South,184,8.0,-999.0,93,-99.99,,,0.00,weatherlink.com 1.10,2013-06-30 21:55:00,
2013-06-30 18:10:00,73.1,71.0,29.79,South,183,6.0,-999.0,93,-99.99,,,0.00,weatherlink.com 1.10,2013-06-30 22:10:00,
2013-06-30 18:25:00,73.1,71.0,29.79,SSW,192,5.0,-999.0,93,-99.99,,,0.00,weatherlink.com 1.10,2013-06-30 22:25:00,
2013-06-30 18:40:00,73.1,71.0,29.79,South,184,12.0,-999.0,93,-99.99,,,0.00,weatherlink.com 1.10,2013-06-30 22:40:00,
2013-06-30 18:56:00,73.1,71.0,29.80,South,169,4.0,-999.0,92,-99.99,,,0.00,weatherlink.com 1.10,2013-06-30 22:56:00,
2013-06-30 19:11:00,72.6,71.0,29.80,South,172,6.0,-999.0,93,-99.99,,,0.00,weatherlink.com 1.10,2013-06-30 23:11:00,
2013-06-30 19:26:00,72.4,71.0,29.81,SSW,194,5.0,-999.0,94,-99.99,,,0.00,weatherlink.com 1.10,2013-06-30 23:26:00,
2013-06-30 19:41:00,71.9,70.0,29.81,South,176,12.0,-999.0,94,-99.99,,,0.00,weatherlink.com 1.10,2013-06-30 23:41:00,
2013-06-30 19:56:00,71.8,70.0,29.81,South,190,12.0,-999.0,95,-99.99,,,0.00,weatherlink.com 1.10,2013-06-30 23:56:00,
2013-06-30 20:11:00,71.6,70.0,29.81,South,181,12.0,-999.0,95,-99.99,,,0.00,weatherlink.com 1.10,2013-07-01 00:11:00,
2013-06-30 20:26:00,71.3,70.0,29.82,South,169,10.0,-999.0,95,-99.99,,,0.00,weatherlink.com 1.10,2013-07-01 00:26:00,
2013-06-30 20:41:00,71.1,70.0,29.82,SSW,197,14.0,-999.0,95,-99.99,,,0.00,weatherlink.com 1.10,2013-07-01 00:41:00,
2013-06-30 20:56:00,71.0,70.0,29.82,South,183,11.0,-999.0,95,-99.99,,,0.00,weatherlink.com 1.10,2013-07-01 00:56:00,
2013-06-30 21:11:00,71.0,70.0,29.83,South,184,12.0,-999.0,95,-99.99,,,0.00,weatherlink.com 1.10,2013-07-01 01:11:00,
2013-06-30 21:26:00,71.0,70.0,29.83,South,174,11.0,-999.0,96,-99.99,,,0.00,weatherlink.com 1.10,2013-07-01 01:26:00,
2013-06-30 21:41:00,71.0,70.0,29.84,SSW,193,11.0,-999.0,96,-99.99,,,0.00,weatherlink.com 1.10,2013-07-01 01:41:00,
2013-06-30 21:56:00,71.2,70.0,29.85,SSE,167,19.0,-999.0,96,-99.99,,,0.00,weatherlink.com 1.10,2013-07-01 01:56:00,
2013-06-30 22:12:00,71.2,70.0,29.85,South,175,12.0,-999.0,96,-99.99,,,0.00,weatherlink.com 1.10,2013-07-01 02:12:00,
2013-06-30 22:27:00,71.4,70.0,29.85,South,183,11.0,-999.0,96,-99.99,,,0.00,weatherlink.com 1.10,2013-07-01 02:27:00,
2013-06-30 22:42:00,71.2,70.0,29.85,South,171,10.0,-999.0,96,-99.99,,,0.00,weatherlink.com 1.10,2013-07-01 02:42:00,
2013-06-30 22:57:00,71.2,70.0,29.85,South,184,14.0,-999.0,96,-99.99,,,0.00,weatherlink.com 1.10,2013-07-01 02:57:00,
2013-06-30 23:12:00,71.2,70.0,29.85,South,173,17.0,-999.0,96,-99.99,,,0.00,weatherlink.com 1.10,2013-07-01 03:12:00,
2013-06-30 23:27:00,71.1,70.0,29.85,South,175,12.0,-999.0,97,-99.99,,,0.00,weatherlink.com 1.10,2013-07-01 03:27:00,
2013-06-30 23:42:00,71.3,70.0,29.85,SSW,208,11.0,-999.0,97,-99.99,,,0.00,weatherlink.com 1.10,2013-07-01 03:42:00,
2013-06-30 23:57:00,71.2,70.0,29.86,SSW,205,10.0,-999.0,96,-99.99,,,0.00,weatherlink.com 1.10,2013-07-01 03:57:00,